[[[{"header":{"parameterUnit":"kt","parameterCategory":2,"dx":1,"dy":1,"la1":30.253999710083008,"la2":30.299108505249023,"lo1":-89.0895004272461,"lo2":-89.04439544677734,"nx":28,"ny":28,"refTime":"2022-10-04T21:00:00:Z","depth":0,"parameterNumber":1,"parameterNumberName":"U-component_of_WINDS"},"data":[-1.4482,-1.4563,-1.4582,-1.4684,-1.4719,-1.4793,-1.4826,-1.4871,-1.4912,-1.5004,-1.5061,-1.509,-1.5141,-1.5215,-1.5279,-1.5291,-1.5318,-1.5332,-1.5344,-1.5261,-1.5251,-1.5242,-1.5223,-1.5337,-1.5337,-1.5428,-1.5429,-1.5429,-1.4418,-1.4453,-1.4512,-1.4583,-1.4634,-1.4632,-1.4689,-1.4733,-1.48,-1.4852,-1.4909,-1.4992,-1.5062,-1.5109,-1.518,-1.5221,-1.5225,-1.5238,-1.5237,-1.5245,-1.5157,-1.5137,-1.5234,-1.5234,-1.5234,-1.5234,-1.5234,-1.5233,-1.4308,-1.4356,-1.4409,-1.4475,-1.4516,-1.4564,-1.4614,-1.4648,-1.4708,-1.4783,-1.4796,-1.4873,-1.493,-1.5026,-1.5064,-1.5126,-1.5115,-1.5137,-1.5144,-1.5149,-1.5152,-1.5019,-1.5139,-1.5139,-1.5139,-1.5138,-1.5138,0,-1.4233,-1.4246,-1.4305,-1.4369,-1.4418,-1.447,-1.4522,-1.4554,-1.459,-1.4639,-1.4711,-1.4756,-1.4847,-1.4918,-1.499,-1.5026,-1.5032,-1.5034,-1.505,-1.5045,-1.5031,-1.5041,-1.4897,-1.5031,-1.503,-1.503,-1.5029,-1.5029,-1.4125,-1.4178,-1.4245,-1.4283,-1.4316,-1.4379,-1.442,-1.4448,-1.4492,-1.4561,-1.4603,-1.4674,-1.4734,-1.4848,-1.4891,-1.496,-1.4964,-1.5013,-1.4974,-1.4967,-1.4966,-1.4964,-1.497,-1.502,-1.5021,-1.5022,-1.5023,0,-1.4062,-1.4094,-1.4183,-1.4245,-1.4262,-1.4317,-1.437,-1.4421,-1.4449,-1.4523,-1.4542,-1.4588,-1.466,-1.4695,-1.4785,-1.4801,-1.4896,-1.4898,-1.4876,-1.4879,-1.4928,-1.4923,-1.5077,-1.5099,-1.498,-1.4981,-1.4982,0,-1.3983,-1.4053,-1.4096,-1.4147,-1.4225,-1.4251,-1.4329,-1.4361,-1.441,-1.4469,-1.4479,-1.4534,-1.457,-1.4631,-1.4655,-1.4739,-1.4756,-1.4774,-1.478,-1.4774,-1.4772,-1.48,-1.4795,-1.479,-1.4789,-1.4789,-1.4788,0,-1.3883,-1.3988,-1.4069,-1.4099,-1.4172,-1.421,-1.4243,-1.4298,-1.4339,-1.4399,-1.4426,-1.4494,-1.4532,-1.4584,-1.4615,-1.4588,-1.4718,-1.4687,-1.4737,-1.4737,-1.4766,-1.4764,-1.4889,-1.4787,-1.4787,-1.4786,-1.4786,0,-1.3825,-1.3881,-1.3995,-1.4056,-1.4083,-1.4137,-1.4205,-1.4259,-1.4317,-1.4335,-1.4383,-1.4395,-1.447,-1.4437,-1.4542,-1.4497,-1.4534,-1.4558,-1.4562,-1.4573,-1.4535,-1.4603,-1.4717,-1.4731,-1.458,-1.4579,-1.4577,0,-1.3702,-1.3825,-1.3848,-1.3956,-1.4017,-1.4024,-1.4086,-1.4136,-1.4166,-1.4224,-1.4257,-1.4324,-1.4307,-1.4333,-1.438,-1.4418,-1.4475,-1.4411,-1.4498,-1.4501,-1.4483,-1.4588,-1.4597,-1.4688,-1.4556,-1.4558,-1.456,0,-1.3611,-1.3698,-1.3716,-1.3751,-1.382,-1.3872,-1.3942,-1.4014,-1.4051,-1.4107,-1.4167,-1.4262,-1.4253,-1.4296,-1.4314,-1.4361,-1.4437,-1.4345,-1.4347,-1.4362,-1.4548,-1.4555,-1.4571,-1.4439,-1.4442,-1.4444,-1.4543,0,-1.3518,-1.3583,-1.3632,-1.3708,-1.3753,-1.3823,-1.3858,-1.3902,-1.3913,-1.3943,-1.4033,-1.4085,-1.416,-1.4186,-1.4198,-1.4294,-1.4284,-1.4274,-1.4246,-1.4314,-1.4348,-1.4362,-1.4193,-1.4192,-1.4192,-1.4191,0,0,-1.3394,-1.3488,-1.3511,-1.358,-1.362,-1.3627,-1.3698,-1.3738,-1.3819,-1.3848,-1.3832,-1.3973,-1.4016,-1.4122,-1.4146,-1.4176,-1.4198,-1.4173,-1.4281,-1.4291,-1.43,-1.4336,-1.4349,-1.419,-1.419,-1.419,-1.419,0,-1.3367,-1.3407,-1.3476,-1.3518,-1.3581,-1.3609,-1.3625,-1.369,-1.3712,-1.38,-1.3807,-1.3865,-1.3978,-1.4023,-1.4061,-1.416,-1.4163,-1.418,-1.4221,-1.4275,-1.4285,-1.4295,-1.4331,-1.4344,-1.4189,-1.4189,-1.4189,0,-1.3285,-1.3331,-1.3368,-1.3457,-1.3499,-1.3563,-1.3541,-1.3609,-1.3658,-1.3665,-1.3752,-1.3786,-1.3851,-1.3945,-1.399,-1.3977,-1.413,-1.4088,-1.4093,-1.4099,-1.4153,-1.4166,-1.4177,-1.403,-1.4029,-1.4028,0,0,-1.3258,-1.3318,-1.3377,-1.3454,-1.348,-1.3522,-1.356,-1.3575,-1.3631,-1.3654,-1.3698,-1.3754,-1.3819,-1.3862,-1.3926,-1.4025,-1.4041,-1.4067,-1.4075,-1.4081,-1.409,-1.4146,-1.4158,-1.4026,-1.4025,-1.4025,0,0,-1.3245,-1.3316,-1.3317,-1.341,-1.3462,-1.3527,-1.3574,-1.3578,-1.3638,-1.3634,-1.3666,-1.3682,-1.3771,-1.3806,-1.3765,-1.3917,-1.3888,-1.3899,-1.3892,-1.3902,-1.3909,-1.39,-1.3752,0,0,0,0,0,-1.3236,-1.3307,-1.3307,-1.3328,-1.3442,-1.3526,-1.3542,-1.3568,-1.3546,-1.3583,-1.3621,-1.3621,-1.379,-1.3755,-1.3776,-1.3822,-1.3991,-1.3997,-1.4003,-1.4017,-1.4027,-1.4035,0,0,0,0,0,0,-1.3245,-1.327,-1.3305,-1.3372,-1.3398,-1.3524,-1.3494,-1.3503,-1.3543,-1.3542,-1.3614,-1.3623,-1.3649,-1.3746,-1.3765,-1.3808,-1.3746,-1.3993,-1.3998,-1.4003,-1.402,-1.4028,-1.4036,0,0,0,0,0,-1.3252,-1.3272,-1.3449,-1.3372,-1.3394,-1.3446,-1.3491,-1.3499,-1.3531,-1.3589,-1.3599,-1.3547,-1.3649,-1.3667,-1.3757,-1.3798,-1.3733,-1.374,-1.3996,-1.4001,-1.4004,-1.4024,0,0,0,0,0,0,-1.3257,-1.3281,-1.3454,-1.3462,-1.3347,-1.3439,-1.3454,-1.3495,-1.3576,-1.3586,-1.3524,-1.3522,-1.365,-1.3664,-1.3678,-1.3793,-1.3722,-1.3729,-1.3734,-1.4,-1.4003,-1.4006,0,0,0,0,0,0,-1.327,-1.3287,-1.3458,-1.3425,-1.343,-1.3433,-1.3447,-1.3527,-1.3577,-1.3506,-1.3507,-1.3522,-1.3631,-1.3662,-1.3673,-1.3798,-1.3714,-1.3721,-1.3726,-1.3729,-1.4002,-1.4005,0,0,0,0,0,0,-1.3278,-1.3293,-1.3423,-1.3427,-1.343,-1.3522,-1.3505,-1.3622,-1.3547,-1.3503,-1.3541,-1.3538,-1.3629,-1.364,-1.367,-1.379,-1.3796,-1.3714,-1.3719,-1.3722,-1.3724,0,0,0,0,0,0,0,-1.3284,-1.3176,-1.3406,-1.3428,-1.3431,-1.3536,-1.3538,-1.354,-1.3546,-1.3544,-1.3541,-1.3539,-1.3675,-1.3683,-1.369,-1.3783,0,0,-1.3714,-1.3717,0,0,0,0,0,0,0,0,-1.3171,-1.3175,-1.3407,-1.3408,-1.341,-1.3536,-1.3538,-1.354,-1.3546,-1.3544,-1.3542,-1.354,-1.3677,-1.3683,-1.3689,0,0,0,0,0,0,0,0,0,0,0,0,0,0,0,-1.3407,-1.3408,0,-1.3536,-1.3538,-1.3539,-1.3545,-1.3544,-1.3542,-1.3541,-1.3679,-1.3684,-1.3689,0,0,0,0,0,0,0,0,0,0,0,0,0,0,0,0,0,0,0,0,0,0,0,0,0,0,0,0,0,0,0,0,0,0,0,0,0,0,0,0,0,0,0,0,0,0,0,0,0,0,0,0,0,0,0,0,0,0,0,0,0,0,0,0,0,0,0,0,0]}],[{"header":{"parameterUnit":"kt","parameterCategory":2,"dx":1,"dy":1,"la1":30.253999710083008,"la2":30.299108505249023,"lo1":-89.0895004272461,"lo2":-89.04439544677734,"nx":28,"ny":28,"refTime":"2022-10-04T21:00:00:Z","depth":0,"parameterNumber":2,"parameterNumberName":"V-component_of_WINDS"},"data":[0.1323,0.131,0.1277,0.1245,0.1208,0.118,0.1158,0.1126,0.109,0.105,0.1019,0.098,0.0928,0.0881,0.0844,0.0826,0.0813,0.0835,0.081,0.0749,0.0738,0.0727,0.0729,0.0832,0.0833,0.0878,0.0879,0.0879,0.1283,0.1248,0.1221,0.1172,0.1148,0.1107,0.1063,0.1045,0.1019,0.0975,0.0943,0.0903,0.0866,0.0804,0.0761,0.0751,0.0727,0.0741,0.0741,0.0733,0.0666,0.0669,0.0761,0.0761,0.0761,0.0761,0.0761,0.0761,0.12,0.1193,0.1144,0.1114,0.1079,0.1045,0.1032,0.0985,0.0957,0.091,0.0871,0.084,0.0787,0.0715,0.0681,0.0654,0.063,0.0633,0.0634,0.0635,0.0643,0.0582,0.0644,0.0644,0.0643,0.0643,0.0642,0,0.1128,0.11,0.1071,0.1033,0.1009,0.0975,0.0937,0.0927,0.0851,0.083,0.0796,0.0769,0.0716,0.0677,0.0627,0.059,0.0541,0.0532,0.0534,0.0553,0.0577,0.0563,0.0456,0.053,0.0529,0.0528,0.0527,0.0527,0.1041,0.1037,0.0968,0.0952,0.0923,0.0899,0.0876,0.0809,0.0788,0.0729,0.0725,0.0686,0.0652,0.0599,0.054,0.0498,0.0474,0.0506,0.0467,0.0486,0.0473,0.0474,0.0473,0.0515,0.0516,0.0518,0.0519,0,0.0995,0.0938,0.092,0.085,0.0832,0.0831,0.0769,0.0758,0.0712,0.069,0.0681,0.0608,0.0574,0.0509,0.0455,0.0422,0.0414,0.0391,0.0433,0.0425,0.0447,0.0445,0.053,0.0537,0.0429,0.0431,0.0431,0,0.0898,0.0895,0.0809,0.0802,0.0796,0.0729,0.0724,0.0684,0.0638,0.0619,0.0555,0.0539,0.0458,0.0432,0.0382,0.0364,0.0354,0.0327,0.0314,0.0333,0.0336,0.0318,0.0313,0.0284,0.0284,0.0284,0.0283,0,0.0832,0.0782,0.077,0.0749,0.0673,0.0668,0.0635,0.0582,0.056,0.052,0.0504,0.0462,0.0439,0.0406,0.0343,0.0319,0.032,0.0273,0.0292,0.0293,0.0294,0.0295,0.0387,0.0283,0.0283,0.0283,0.0283,0,0.0744,0.0709,0.07,0.0635,0.0624,0.0615,0.0571,0.0548,0.0496,0.0466,0.0433,0.0382,0.0361,0.032,0.029,0.0277,0.0256,0.0228,0.0228,0.0222,0.0177,0.0238,0.0332,0.0339,0.0217,0.0216,0.0216,0,0.0685,0.066,0.0603,0.0595,0.0575,0.0505,0.0493,0.045,0.0408,0.0382,0.0334,0.0305,0.026,0.0242,0.0235,0.0184,0.0201,0.0179,0.0139,0.0139,0.0156,0.0243,0.0273,0.0319,0.0208,0.0209,0.0209,0,0.0631,0.0539,0.0542,0.0515,0.0448,0.043,0.0417,0.0374,0.0361,0.0318,0.0304,0.026,0.0225,0.0195,0.0147,0.0144,0.0187,0.0106,0.0103,0.0122,0.0198,0.0228,0.0236,0.0156,0.0156,0.0157,0.0203,0,0.0511,0.0491,0.0496,0.0438,0.0414,0.0405,0.0339,0.0322,0.028,0.0236,0.0213,0.0158,0.0111,0.0103,0.0061,0.0075,0.0062,0.0024,-0.0022,0.0036,0.0049,0.0055,-0.0036,-0.0037,-0.0039,-0.004,0,0,0.0468,0.0438,0.0374,0.036,0.0336,0.0263,0.0259,0.0226,0.0162,0.0145,0.012,0.0051,0.0007,-0.0014,-0.0001,-0.002,-0.0025,-0.0043,0.0009,0.0015,0.002,0.0036,0.0043,-0.0043,-0.0043,-0.0044,-0.0044,0,0.041,0.0372,0.037,0.0334,0.0279,0.0232,0.0232,0.0163,0.0134,0.0112,0.0049,0.0027,-0.0027,-0.0065,-0.0092,-0.0041,-0.0089,-0.005,0.0,-0.0003,0.0005,0.0011,0.0028,0.0036,-0.0048,-0.0048,-0.0048,0,0.0345,0.0296,0.0288,0.0231,0.0193,0.0173,0.011,0.0091,0.0075,-0.0008,-0.0029,-0.0069,-0.0127,-0.0138,-0.0145,-0.0169,-0.0143,-0.0164,-0.0156,-0.0159,-0.0166,-0.0157,-0.0148,-0.026,-0.026,-0.0261,0,0,0.0304,0.0285,0.021,0.0213,0.0194,0.0124,0.0107,0.0063,0.0015,-0.0004,-0.0057,-0.0104,-0.0136,-0.0156,-0.019,-0.0192,-0.0211,-0.0187,-0.0177,-0.0168,-0.0166,-0.0171,-0.0162,-0.0262,-0.0262,-0.0263,0,0,0.0283,0.0197,0.0165,0.016,0.0118,0.0043,0.0046,0.0003,-0.0034,-0.0041,-0.0118,-0.0134,-0.0146,-0.0183,-0.0197,-0.0208,-0.0252,-0.025,-0.0183,-0.0171,-0.0162,-0.0153,-0.0272,0,0,0,0,0,0.019,0.0208,0.018,0.0169,0.0094,0.0059,0.0049,-0.0013,-0.0042,-0.0038,-0.0089,-0.0138,-0.0207,-0.0221,-0.0232,-0.0216,-0.0284,-0.028,-0.0276,-0.019,-0.0178,-0.0167,0,0,0,0,0,0,0.0185,0.0172,0.0179,0.0105,0.0088,0.0058,-0.0005,-0.0021,-0.0044,-0.0053,-0.0126,-0.014,-0.0196,-0.022,-0.0229,-0.0212,-0.027,-0.0282,-0.0279,-0.0276,-0.0186,-0.0175,-0.0166,0,0,0,0,0,0.0181,0.0171,0.0068,0.0104,0.0089,0.0012,-0.0006,-0.002,-0.0039,-0.0118,-0.0134,-0.0084,-0.0193,-0.0205,-0.0225,-0.0206,-0.0264,-0.0267,-0.028,-0.0278,-0.0275,-0.0181,0,0,0,0,0,0,0.0178,0.0156,0.0064,0.0057,0.0093,0.0012,-0.0002,-0.0019,-0.0105,-0.012,-0.0079,-0.0085,-0.0192,-0.0201,-0.021,-0.0201,-0.0259,-0.0262,-0.0264,-0.0278,-0.0276,-0.0275,0,0,0,0,0,0,0.0161,0.0151,0.006,0.0049,0.004,0.0013,0.0,-0.0027,-0.0105,-0.0062,-0.0069,-0.0081,-0.018,-0.0198,-0.0205,-0.0245,-0.0256,-0.0259,-0.0261,-0.0262,-0.0277,-0.0275,0,0,0,0,0,0,0.0156,0.0147,0.0051,0.0044,0.0036,-0.0048,-0.0012,-0.0086,-0.0111,-0.0057,-0.0115,-0.0117,-0.0175,-0.0184,-0.0202,-0.0237,-0.0243,-0.0256,-0.0258,-0.0259,-0.026,0,0,0,0,0,0,0,0.0151,0.0227,0.0106,0.004,0.0033,-0.0008,-0.001,-0.0012,-0.0111,-0.0113,-0.0115,-0.0116,-0.0238,-0.0242,-0.0245,-0.0232,0,0,-0.0255,-0.0257,0,0,0,0,0,0,0,0,0.0229,0.0227,0.0106,0.0104,0.0103,-0.0008,-0.001,-0.0012,-0.0112,-0.0113,-0.0114,-0.0116,-0.0239,-0.0242,-0.0245,0,0,0,0,0,0,0,0,0,0,0,0,0,0,0,0.0105,0.0104,0,-0.0009,-0.001,-0.0011,-0.0112,-0.0113,-0.0114,-0.0115,-0.024,-0.0242,-0.0244,0,0,0,0,0,0,0,0,0,0,0,0,0,0,0,0,0,0,0,0,0,0,0,0,0,0,0,0,0,0,0,0,0,0,0,0,0,0,0,0,0,0,0,0,0,0,0,0,0,0,0,0,0,0,0,0,0,0,0,0,0,0,0,0,0,0,0,0,0]}]]]